SCP
0 0 0 0 0 0 0 0 0 0 0 0 0 0 0 0 0 0 0 0 0 0 0 0 0 0 0 0 0 0 0 0 0 0 0 0 0 0 0 0 0 0 0 0
0 0 0 0 0 0 0 0 0 0 0 0 0 0 0 0 0 0 0 0 0 0 0 0 0 0 0 0 0 0 0 0 0 0 0 0 0 0 0 0 0 0 0 0
0 0 0 0 0 0 0 0 0 0 0 0 0 0 0 0 0 0 0 0 0 0 0 0 0 0 0 0 0 0 0 0 0 0 0 0 0 0 0 0 0 0 0 0
0 0 0 0 0 0 0 0 0 0 0 0 0 0 0 0 0 0 0 0 0 0 0 0 0 0 0 0 0 0 0 0 0 0 0 0 0 0 0 0 0 0 0 0
0 0 0 0 0 0 0 0 0 0 0 0 0 0 0 0 0 0 0 0 0 0 0 0 0 0 0 0 0 0 0 0 0 0 0 0 0 0 0 0 0 0 0 0
0 0 0 0 0 0 0 0 0 0 0 0 0 0 0 0 0 0 0 0 0 0 0 0 0 0 0 0 0 0 0 0 0 0 0 0 0 0 0 0 0 0 0 0
0 0 0 0 0 0 0 0 0 0 0 0 0 0 0 0 0 0 0 0 0 0 0 0 0 0 0 0 0 0 0 0 0 0 0 0 0 0 0 0 0 0 0 0
0 0 0 0 0 0 0 0 0 0 0 0 0 0 0 0 0 0 0 0 0 0 0 0 0 0 0 0 0 0 0 0 0 0 0 0 0 0 0 0 0 0 0 0
0 0 0 0 0 0 0 0 0 0 0 0 0 0 0 0 0 0 0 0 0 0 0 0 0 0 0 0 0 0 0 0 0 0 0 0 0 0 0 0 0 0 0 0
0 0 0 0 0 0 0 0 0 0 0 0 0 0 0 0 0 0 0 0 0 0 0 0 0 0 0 0 0 0 0 0 0 0 0 0 0 0 0 0 0 0 0 0
0 0 0 0 0 0 0 0 0 0 0 0 0 0 0 0 0 0 0 0 0 0 0 0 0 0 0 0 0 0 0 0 0 0 0 0 0 0 0 0 0 0 0 0
0 0 0 0 0 0 0 0 0 0 0 0 0 0 0 0 0 0 0 0 0 0 0 0 0 0 0 0 0 0 0 0 0 0 0 0 0 0 0 0 0 0 0 0
0 0 0 0 0 0 0 0 0 0 0 0 0 0 0 0 0 0 0 0 0 0 0 0 0 0 0 0 0 0 0 0 0 0 0 0 0 0 0 0 0 0 0 0
0 0 0 0 0 0 0 0 0 0 0 0 0 0 0 0 0 0 0 0 0 0 0 0 0 0 0 0 0 0 0 0 0 0 0 0 0 0 0 0 0 0 0 0
0 0 0 0 0 0 0 0 0 0 0 0 0 0 0 0 0 0 0 0 0 0 0 0 0 0 0 0 0 0 0 0 0 0 0 0 0 0 0 0 0 0 0 0
0 0 0 0 0 0 0 0 0 0 0 0 0 0 0 0 0 0 0 0 0 0 0 0 0 0 0 0 0 0 0 0 0 0 0 0 0 0 0 0 0 0 0 0
0 0 0 0 0 0 0 0 0 0 0 0 0 0 0 0 0 0 0 0 0 0 0 0 0 0 0 0 0 0 0 0 0 0 0 0 0 0 0 0 0 0 0 0
0 0 0 0 0 0 0 0 0 0 0 0 0 0 0 0 0 0 0 0 0 0 0 0 0 0 0 0 0 0 0 0 0 0 0 0 0 0 0 0 0 0 0 0
0 0 0 0 0 0 0 0 0 0 0 0 0 0 0 0 0 0 0 0 0 0 0 0 0 0 0 0 0 0 0 0 0 0 0 0 0 0 0 0 0 0 0 0
0 0 0 0 0 0 0 0 0 0 0 0 0 0 0 0 0 0 0 0 0 0 0 0 0 0 0 0 0 0 0 0 0 0 0 0 0 0 0 0 0 0 0 0
0 0 0 0 0 0 0 0 0 0 0 0 0 0 0 0 0 0 0 0 0 0 0 0 0 0 0 0 0 0 0 0 0 0 0 0 0 0 0 0 0 0 0 0
0 0 0 0 0 0 0 0 0 0 0 0 0 0 0 0 0 0 0 0 0 0 0 0 0 0 0 0 0 0 0 0 0 0 0 0 0 0 0 0 0 0 0 0
0 0 0 0 0 0 0 0 0 0 0 0 0 0 0 0 0 0 0 0 0 0 0 0 0 0 0 0 0 0 0 0 0 0 0 0 0 0 0 0 0 0 0 0
0 0 0 0 0 0 0 0 0 0 0 0 0 0 0 0 0 0 0 0 0 0 0 0 0 0 0 0 0 0 0 0 0 0 0 0 0 0 0 0 0 0 0 0
0 0 0 0 0 0 0 0 0 0 0 0 0 0 0 0 0 0 0 0 0 0 0 0 0 0 0 0 0 0 0 0 0 0 0 0 0 0 0 0 0 0 0 0
0 0 0 0 0 0 0 0 0 0 0 0 0 0 0 0 0 0 0 0 0 0 0 0 0 0 0 0 0 0 0 0 0 0 0 0 0 0 0 0 0 0 0 0
0 0 0 0 0 0 0 0 0 0 0 0 0 0 0 0 0 0 0 0 0 0 0 0 0 0 0 0 0 0 0 0 0 0 0 0 0 0 0 0 0 0 0 0
Wind_Speed
10 11 11 11 11 10 9 10 11 10 9 8 7 6 5 4 3 2 2 2 1 1 1 1 2 2 2 2 2 2 1 1 1 1 1 1 1 2 2 3 3 3 4 4
10 9 10 10 9 9 8 8 9 9 7 7 6 4 4 4 3 3 3 2 1 1 1 1 2 3 3 3 2 2 1 1 0 1 1 1 1 2 2 3 3 4 3 4
8 7 9 6 3 5 5 6 8 8 7 6 6 5 4 3 3 4 4 3 1 1 2 2 2 2 3 2 2 2 1 1 1 0 1 1 2 2 2 3 3 3 3 4
7 8 6 3 5 6 6 4 5 6 7 7 6 5 3 3 3 4 4 3 2 1 1 2 2 2 2 2 2 2 1 1 1 1 1 1 2 2 2 3 3 3 3 3
6 7 6 1 5 7 7 5 5 6 7 6 5 3 1 4 4 5 4 2 1 1 1 1 1 2 2 2 2 1 1 1 1 0 0 1 2 2 2 3 3 3 3 3
7 8 5 5 7 8 8 4 7 8 7 6 6 6 3 3 4 3 3 2 0 1 1 1 1 2 2 2 2 1 1 1 1 0 1 1 2 2 2 2 3 3 3 4
8 7 3 6 7 7 5 6 9 9 8 6 6 6 5 3 3 2 2 1 0 0 1 1 1 2 3 2 1 1 0 1 0 0 1 1 2 2 2 2 3 3 4 4
6 6 3 7 7 6 8 8 8 8 7 5 4 4 3 2 2 2 1 1 0 1 1 1 2 2 2 2 1 1 1 1 1 0 1 1 1 2 3 3 3 2 3 3
5 5 6 7 8 8 8 8 8 7 6 4 4 3 3 2 2 2 1 1 0 1 1 1 2 2 2 1 1 2 1 1 1 0 1 1 1 2 2 2 3 3 3 4
8 7 8 8 7 8 8 7 7 6 5 4 3 3 3 2 2 2 1 1 1 1 1 1 2 2 2 2 2 2 1 1 1 1 0 0 1 2 3 3 4 4 4 5
10 9 8 5 7 9 9 7 6 6 5 4 3 3 2 2 2 1 1 1 1 2 2 1 2 1 2 3 3 2 2 1 1 1 0 1 1 2 4 4 4 5 6 6
8 8 9 10 9 10 9 7 6 5 4 3 3 3 2 2 2 2 2 2 2 2 2 2 2 2 2 3 3 3 3 2 1 1 0 1 1 1 1 3 3 5 6 7
11 11 12 11 10 9 8 7 6 5 4 4 3 3 2 2 2 2 2 2 2 2 2 2 3 2 2 3 4 3 2 2 2 2 1 2 2 2 2 2 5 7 7 6
9 9 10 9 9 8 7 7 5 4 4 3 2 2 2 3 2 3 3 3 2 2 2 3 3 2 3 4 4 4 3 2 2 2 2 2 2 3 3 4 4 3 3 5
8 9 10 10 9 7 6 5 4 4 3 2 2 2 3 3 3 3 3 3 3 3 2 3 2 2 2 3 4 4 3 2 1 2 3 3 3 3 3 4 4 4 4 2
10 10 8 7 7 6 6 5 5 4 4 3 3 3 3 3 3 3 3 3 3 3 2 2 2 2 2 3 3 3 2 1 2 3 3 3 3 3 3 4 4 4 4 5
8 8 8 7 6 6 5 5 5 4 4 4 4 3 3 3 3 3 3 3 3 2 2 3 3 2 3 3 3 2 2 3 5 4 2 2 3 4 4 4 5 5 5 4
8 9 8 7 7 6 6 5 5 5 4 4 4 4 4 4 4 3 3 3 3 2 2 2 2 3 3 3 3 2 2 1 1 1 1 2 3 4 4 4 5 6 5 3
9 8 8 7 7 6 6 5 5 5 4 4 4 4 4 4 4 4 4 4 3 3 2 2 2 3 3 2 2 3 2 2 2 1 2 2 4 4 4 4 5 6 6 6
8 8 7 7 6 6 5 5 5 4 4 5 5 5 4 4 4 4 4 4 2 2 2 2 4 4 3 3 4 3 2 2 2 2 3 3 3 4 4 5 5 5 5 5
8 7 7 6 6 6 5 5 5 5 5 6 6 5 5 4 4 4 4 3 2 3 3 4 4 3 3 3 5 3 2 2 2 2 3 3 3 4 5 5 5 5 5 5
8 7 7 6 6 6 5 5 6 6 6 6 6 6 5 5 5 4 4 2 2 3 4 4 4 3 2 3 4 3 2 2 2 2 2 3 3 4 5 5 5 5 5 5
7 7 6 6 6 6 6 6 6 6 6 6 6 5 5 5 4 4 4 3 3 3 4 2 3 5 4 5 3 3 2 2 2 2 2 3 3 4 4 5 4 4 5 5
8 7 6 6 5 6 6 6 5 5 5 6 6 6 5 4 4 4 3 4 4 4 3 3 6 6 6 5 3 3 3 2 2 3 2 3 3 3 3 3 3 4 4 5
8 7 6 6 6 5 5 5 5 5 6 5 6 6 5 4 4 3 3 5 6 6 4 6 7 7 6 4 3 3 2 2 2 3 2 3 3 3 3 3 3 4 4 4
7 6 6 6 5 5 5 5 5 5 5 5 5 5 4 4 4 4 4 5 6 5 4 5 7 7 6 4 4 3 2 2 2 3 2 2 3 2 2 3 4 4 4 4
7 6 5 5 5 5 5 5 5 5 5 5 5 5 5 4 4 5 5 5 5 5 4 4 5 5 4 4 3 2 2 2 2 2 1 1 1 1 1 2 3 3 4 4
Wind_Direction
285 291 291 291 292 291 285 286 289 300 306 331 337 331 331 329 318 299 274 268 242 222 199 192 196 194 179 164 158 175 183 172 194 260 274 266 291 298 297 297 296 299 303 307
282 281 285 287 289 286 286 288 287 292 309 356 351 341 340 336 322 308 292 275 243 219 216 201 206 193 168 159 161 178 188 208 191 248 281 292 302 309 313 316 318 315 308 310
287 300 284 271 312 302 294 301 306 317 342 345 335 331 329 329 319 320 316 295 255 228 234 223 208 190 170 160 167 182 191 211 197 232 311 312 315 334 330 326 328 321 318 315
287 293 275 26 8 332 311 335 342 337 338 339 340 330 327 343 335 324 315 304 284 253 241 221 189 178 172 163 167 181 190 195 193 210 292 325 322 333 330 324 325 318 316 317
283 284 282 308 5 340 311 314 1 345 344 347 343 308 344 10 345 325 319 319 305 260 226 198 177 180 167 158 163 182 180 188 180 212 307 312 325 335 331 329 333 324 327 332
280 289 298 5 360 333 292 277 26 352 338 335 322 310 2 357 327 333 349 356 346 171 159 168 167 181 179 171 170 186 219 192 170 236 291 307 329 323 328 322 320 317 336 338
280 282 293 22 355 327 303 350 345 330 324 317 318 338 350 330 330 351 3 12 28 162 151 157 172 190 190 182 161 174 219 165 151 211 290 315 327 319 311 307 321 324 329 324
284 277 320 19 349 341 331 324 318 317 318 315 325 340 342 341 345 343 3 12 336 189 161 167 183 197 193 183 159 158 174 181 173 187 305 354 333 324 321 315 302 307 318 316
294 302 332 323 318 323 322 315 316 313 312 301 299 312 326 335 333 328 343 8 262 212 179 184 188 200 202 174 164 162 167 171 159 216 324 337 318 322 315 310 319 332 331 332
280 283 305 309 316 326 325 318 318 315 306 289 285 294 305 316 321 317 309 291 249 220 195 185 181 187 195 174 172 174 173 172 190 214 273 27 311 323 328 334 339 338 340 340
274 291 303 306 326 329 325 321 318 313 305 293 279 283 289 294 293 288 267 250 240 230 222 207 181 186 188 171 176 178 178 187 208 215 358 324 330 336 331 348 349 326 334 333
293 312 305 304 311 314 312 309 308 304 299 288 270 274 271 269 266 256 246 232 224 224 229 221 197 190 183 179 182 187 192 202 227 235 251 295 308 313 241 257 249 246 259 285
291 299 298 294 294 297 297 298 299 293 287 278 272 265 250 248 243 230 227 225 224 231 230 212 196 190 189 188 188 192 211 222 263 283 283 293 308 310 314 265 225 230 239 250
290 292 289 290 296 294 290 289 287 287 282 270 262 249 234 240 235 223 224 228 224 228 227 206 199 199 197 189 190 199 212 202 238 266 290 299 303 304 310 320 328 326 246 222
291 288 285 288 287 283 281 274 272 274 264 252 246 239 232 242 237 230 227 222 215 216 215 204 202 201 193 186 191 206 223 227 257 292 290 293 298 300 311 321 326 329 331 319
295 294 289 283 282 277 268 266 269 266 254 249 244 238 238 243 231 222 220 214 211 211 211 222 225 212 192 186 197 208 212 195 255 271 276 289 299 308 319 322 327 331 332 341
288 289 289 286 282 276 271 270 271 261 252 246 240 230 228 232 221 215 213 212 213 218 228 231 232 216 191 189 213 222 208 169 198 242 272 310 314 316 324 327 329 325 331 3
285 280 278 272 272 272 271 273 268 258 252 241 225 216 223 226 223 216 208 201 199 212 227 224 214 210 191 187 219 247 227 229 229 273 303 311 314 312 317 320 320 324 332 348
302 297 285 270 265 261 261 263 262 256 244 227 218 221 230 229 219 213 206 205 204 217 227 213 189 212 199 189 237 227 234 243 259 274 288 284 280 300 314 322 326 333 339 342
300 298 291 277 262 256 255 256 255 248 235 223 222 226 229 226 213 204 205 212 212 222 216 204 199 203 205 196 242 239 229 257 283 305 307 304 307 314 321 328 328 335 340 338
301 296 291 282 270 257 251 247 245 239 229 221 223 226 223 216 210 206 210 208 191 214 212 188 206 203 202 198 218 241 231 249 282 297 301 307 316 320 323 322 324 332 333 332
299 291 286 280 270 259 249 242 237 230 220 222 225 224 215 205 207 208 213 217 182 197 218 198 193 172 188 223 219 231 235 246 271 284 291 303 310 311 313 320 330 335 335 338
298 287 279 273 265 256 247 239 228 221 218 220 219 218 212 207 207 209 201 187 189 184 217 196 136 141 187 223 229 233 239 249 268 280 290 305 314 318 321 326 331 332 339 340
294 284 277 271 261 250 241 235 223 217 217 219 213 208 204 203 208 208 184 159 171 182 205 138 144 168 209 224 223 227 231 244 259 274 294 310 316 317 322 324 327 332 337 337
288 280 271 263 252 244 235 225 215 213 213 205 198 196 201 207 204 188 182 172 168 189 188 161 172 191 215 221 219 227 239 261 289 303 312 320 324 329 334 334 334 331 333 338
280 270 265 259 256 249 229 216 211 207 207 198 191 189 190 189 192 187 189 185 178 193 200 173 172 193 213 216 216 224 237 223 232 255 288 307 326 333 338 338 339 338 340 344
270 264 258 249 243 241 230 217 215 210 206 199 190 188 187 187 191 191 189 184 178 183 190 185 182 193 206 212 211 211 224 241 249 253 262 292 321 328 339 333 335 340 339 348